Tracking 29892 objects as of 21-Nov-2024
HD Live streaming from Space Station
objects crossing your sky now

THORAD AGENA D DEB

Track THORAD AGENA D DEB now!
10-day predictions


NORAD ID: 4683
Int'l Code: 1970-025BG
Perigee: 1,044.6 km
Apogee: 1,228.7 km
Inclination: 100.5 °
Period: 107.9 minutes
Semi major axis: 7507 km
RCS: 0.016 m2 (small)
Launch date: April 8, 1970
Source: United States (US)
Launch site: AIR FORCE WESTERN TEST RANGE (AFWTR)

Note: This is SATELLITE DEBRIS
Your satellite tracking list
Your tracking list is empty




NASA's NSSDC Master Catalog

Two Line Element Set (TLE):
1 04683U 70025BG  24325.33707686  .00000429  00000-0  91048-3 0  9991
2 04683 100.4762 343.8977 0122574   3.2570 116.0286 13.34580614650923
Source of the keplerian elements: AFSPC